Location: Tauranga
(37.6860°S, 176.1670°E)
Time: 13:49:42
(UTC+12:00)

ISS - Visible Passes

Search period start: 17 May 2021 00:00
Search period end: 27 May 2021 00:00
Orbit: 417 x 422 km, 51.6° (Epoch: 16 May)

Date Brightness Start Highest point End Pass type
(mag) Time Alt. Az. Time Alt. Az. Time Alt. Az.
19 May -0.7 06:26:21 10° N 06:28:53 20° NE 06:31:28 10° E visible
20 May -0.3 05:40:34 10° NE 05:41:37 11° NE 05:42:40 10° ENE visible
21 May -3.3 06:27:09 10° NW 06:30:32 65° NE 06:33:57 10° SE visible
22 May -2.1 05:40:01 10° NNW 05:43:09 35° NE 05:46:19 10° ESE visible
23 May -1.2 04:55:42 20° NE 04:55:49 20° NE 04:58:23 10° E visible
23 May -3.2 06:29:10 10° WNW 06:32:26 40° SW 06:35:43 10° SE visible
24 May -3.8 05:44:15 52° W 05:44:54 69° SW 05:48:21 10° SE visible
25 May -1.4 04:59:28 22° ESE 04:59:28 22° ESE 05:00:52 10° SE visible
25 May -2.0 06:32:28 12° WSW 06:34:32 19° SSW 06:37:04 10° SSE visible
26 May -2.3 05:47:27 25° SSW 05:47:27 25° SSW 05:49:52 10° SSE visible
